Location: Newark
(13.8117°N, 3.6025°W)
Time: 23:02:17
(UTC+00:00)

SR - All Passes

Search period start: 21 August 2019 00:00
Search period end: 31 August 2019 00:00
Orbit: 578 x 878 km, 66.7° (Epoch: 20 August)

Date Brightness Start Highest point End Pass type
(mag) Time Alt. Az. Time Alt. Az. Time Alt. Az.
21 Aug - 12:16:01 10° SW 12:20:03 45° WNW 12:24:15 10° N daylight
21 Aug - 22:51:19 10° NNW 22:57:09 77° ENE 23:03:03 10° SSE night (unlit)
22 Aug - 11:26:23 10° S 11:30:30 56° ESE 11:34:46 10° NNE daylight
22 Aug - 22:02:19 10° N 22:07:31 34° ENE 22:12:46 10° SE visible
22 Aug - 23:45:00 10° WNW 23:49:20 22° WSW 23:53:42 10° SSW night (unlit)
23 Aug - 10:38:05 10° SSE 10:41:04 19° ESE 10:44:06 10° ENE daylight
23 Aug - 12:19:55 10° WSW 12:22:50 18° WNW 12:25:50 10° NNW daylight
23 Aug - 21:14:34 10° NNE 21:17:45 15° ENE 21:20:57 10° E visible
23 Aug - 22:54:14 10° NW 22:59:51 50° WSW 23:05:31 10° S night (unlit)
24 Aug - 11:29:03 10° SW 11:33:09 50° WNW 11:37:24 10° N daylight
24 Aug - 22:04:28 10° NNW 22:10:17 72° ENE 22:16:10 10° SSE visible
25 Aug - 10:39:31 10° S 10:43:37 50° ESE 10:47:51 10° NNE daylight
25 Aug - 21:15:32 10° N 21:20:38 31° ENE 21:25:48 10° SE visible
25 Aug - 22:57:58 10° WNW 23:02:30 23° WSW 23:07:02 10° SSW night (unlit)
26 Aug - 09:51:24 10° SSE 09:54:11 17° ESE 09:57:01 10° ENE daylight
26 Aug - 11:32:49 10° WSW 11:35:55 20° WNW 11:39:08 10° NNW daylight
26 Aug - 20:28:00 10° NE 20:30:52 14° ENE 20:33:44 10° E visible
26 Aug - 22:07:19 10° NNW 22:13:00 54° WSW 22:18:43 10° S visible
27 Aug - 10:42:06 10° SSW 10:46:14 56° WNW 10:50:34 10° N daylight
27 Aug - 21:17:37 10° NNW 21:23:26 67° ENE 21:29:17 10° SSE visible
28 Aug - 09:52:41 10° S 09:56:43 46° ESE 10:00:55 10° NE daylight
28 Aug - 20:28:45 10° N 20:33:46 29° ENE 20:38:49 10° SE visible
28 Aug - 22:10:57 10° NW 22:15:39 25° WSW 22:20:21 10° SSW visible
29 Aug - 09:04:44 10° SE 09:07:18 16° ESE 09:09:54 10° ENE daylight
29 Aug - 10:45:43 10° WSW 10:49:00 21° WNW 10:52:25 10° NNW daylight
29 Aug - 19:41:29 10° NE 19:43:59 13° ENE 19:46:28 10° E visible
29 Aug - 21:20:24 10° NNW 21:26:09 58° WSW 21:31:54 10° S visible
30 Aug - 09:55:10 10° SSW 09:59:20 62° WNW 10:03:43 10° NNE daylight
30 Aug - 20:30:47 10° NNW 20:36:34 62° ENE 20:42:23 10° SSE visible
30 Aug - 22:16:50 10° W 22:18:14 11° WSW 22:19:38 10° WSW visible
